Location: Béaulencourt
(50.0796°N, 2.8795°E)
Time: 13:51:11
(UTC+00:00)

Dummy Sat-02 - Pass Details

Date: 23 April 2026
Orbit: 472 x 483 km, 86.3° (Epoch: 12 May)

Event Time Altitude Azimuth Distance (km) Brightness Sun altitude
Exits shadow 19:31:50 - 157° (SSE) 2,337 7.6 -6.2°
Reaches altitude 10° 19:33:35 10° 148° (SSE) 1,650 6.7 -6.4°
Maximum altitude 19:36:47 31° 86° (E) 871 5.4 -6.9°
Drops below altitude 10° 19:39:59 10° 23° (NNE) 1,658 7.4 -7.3°
Sets 19:42:13 0° 13° (NNE) 2,540 8.5 -7.6°
